Theta_e
364 363 364 362 362 362 357 360 361 358 357 356 356 355 351 351 351 351 355 362 361 363 361 362 360 360 359 357 357 357 357 355 355 354 354 355 356 357 356 355 355 356 357
363 362 359 360 363 357 363 360 361 358 357 356 354 354 353 354 354 355 354 357 361 361 362 362 362 362 361 359 358 359 359 360 360 358 358 356 356 358 357 356 357 357 357
367 365 361 359 358 363 364 362 359 357 355 354 354 350 354 354 352 354 353 355 354 361 362 361 363 365 364 360 359 362 361 360 359 360 359 358 356 356 356 357 357 357 357
367 363 360 357 359 361 357 359 357 353 354 352 353 354 353 353 352 353 354 352 354 354 360 362 362 363 365 362 361 360 362 361 361 360 360 360 360 359 358 358 358 358 358
366 364 359 360 361 356 355 353 352 354 349 348 349 351 352 352 348 347 350 351 351 352 355 358 359 360 362 362 363 362 361 361 361 361 361 360 359 359 359 359 359 358 359
365 363 360 359 358 356 354 353 351 351 351 350 349 347 348 350 350 346 345 349 350 350 351 355 356 355 361 363 363 362 362 362 361 361 361 360 359 358 358 358 359 359 359
364 363 361 359 358 354 355 355 354 350 347 351 345 343 346 348 349 350 349 346 347 349 350 352 356 354 356 360 360 361 363 364 363 362 361 359 358 357 357 357 357 358 358
359 362 363 356 354 351 352 352 353 347 346 347 341 338 333 338 344 346 348 346 346 348 347 349 352 354 354 356 357 361 361 362 365 364 362 360 358 357 356 356 355 356 356
355 359 358 357 355 354 346 348 349 345 341 347 345 338 331 328 335 343 346 347 346 345 347 348 350 351 355 355 359 360 360 359 363 365 364 361 359 358 358 357 356 355 355
354 354 355 355 355 351 349 349 347 346 346 340 344 346 342 339 332 329 340 344 347 345 348 348 347 350 351 354 357 360 360 358 360 362 364 363 361 360 359 358 357 355 355
354 351 355 354 351 349 348 347 347 346 344 342 341 341 341 338 340 335 329 334 340 348 346 346 344 346 350 352 352 354 358 357 356 357 359 361 362 363 362 361 359 358 358
348 352 349 351 351 348 347 345 347 346 344 343 342 341 338 334 334 332 330 333 335 339 346 344 344 345 346 350 355 355 357 355 354 354 355 356 359 361 364 364 363 362 362
346 348 351 352 347 348 347 346 344 343 343 341 340 339 339 339 339 337 334 331 331 335 340 345 343 343 343 346 346 350 355 351 351 350 350 352 354 357 360 362 363 364 365
346 351 349 349 348 348 347 347 343 343 344 342 340 340 340 339 341 338 334 331 326 328 333 336 342 345 346 343 344 347 343 345 347 345 346 347 348 351 354 356 357 358 360
343 345 347 347 347 347 346 346 342 341 343 341 340 339 335 334 335 335 337 334 328 321 323 331 336 342 344 344 344 341 337 345 344 343 342 342 344 346 348 350 351 351 352
350 348 346 345 345 345 346 344 342 340 339 339 338 337 338 334 332 333 330 332 331 327 321 329 334 340 341 347 346 345 348 346 344 341 340 339 341 342 344 345 345 346 346
351 348 347 344 343 342 344 342 342 340 336 339 338 336 336 334 329 328 327 326 324 323 323 328 334 339 341 341 344 349 350 349 350 339 339 338 337 339 341 341 341 342 343
350 348 346 344 341 341 342 339 339 338 337 335 336 335 334 330 329 327 324 322 322 322 322 325 331 335 338 340 340 342 346 347 347 344 337 337 336 335 336 336 336 336 337
346 346 345 342 341 341 341 340 339 338 338 337 336 333 333 331 327 325 324 321 321 320 320 320 327 334 337 339 340 343 342 343 345 340 336 335 335 334 333 331 331 330 330
346 345 345 344 341 341 340 339 338 337 335 336 336 333 332 330 327 324 322 321 319 317 318 318 320 327 334 336 338 336 339 345 344 349 346 343 338 336 334 330 330 330 326
346 346 344 343 343 340 335 339 338 337 336 334 335 333 331 332 329 327 323 322 319 316 316 316 317 320 325 332 333 334 336 339 343 345 344 347 346 344 340 333 337 334 328
346 346 342 341 341 337 329 333 334 336 335 333 331 332 331 331 330 328 326 325 322 317 315 315 316 315 318 327 334 334 334 335 333 343 343 343 349 346 347 345 338 336 329
346 344 342 341 340 339 326 327 331 333 332 331 332 331 329 330 329 327 326 324 323 321 321 319 317 318 319 323 331 334 333 333 333 340 343 339 346 345 350 348 336 332 330
345 342 340 341 339 337 324 323 327 331 332 332 332 331 328 328 329 327 324 322 322 319 320 321 321 321 322 326 327 335 336 335 339 343 345 335 343 343 348 349 335 333 329
342 341 341 339 337 338 323 319 322 330 330 329 333 331 330 327 325 320 320 320 317 318 322 321 320 320 321 323 325 331 332 330 331 335 343 338 341 341 343 344 341 331 327
341 336 335 338 333 339 319 318 323 322 323 326 330 331 323 321 315 312 316 317 316 317 317 319 319 323 321 321 322 325 331 331 329 332 340 337 340 338 335 341 339 331 327
Wind_Speed
2 2 2 3 3 4 3 2 2 4 5 5 5 5 4 5 7 1 5 14 16 16 15 16 17 17 17 16 16 16 16 15 14 13 12 10 10 10 8 7 8 8 8
4 1 1 4 1 4 2 5 4 4 5 6 7 6 5 3 5 6 2 8 14 16 17 16 17 18 18 17 17 18 17 16 15 16 13 12 10 10 9 10 10 9 8
5 2 1 3 4 3 3 4 6 5 6 6 8 7 5 6 6 7 5 6 10 17 19 18 17 17 18 18 18 18 18 17 16 16 15 14 13 13 12 12 11 11 10
5 3 2 4 4 3 4 5 4 5 5 5 5 4 5 4 7 8 6 5 5 9 15 20 20 20 19 20 19 18 19 19 18 17 16 15 15 15 14 13 13 13 12
1 2 4 3 4 4 5 6 5 4 4 6 7 7 7 5 8 8 10 10 10 8 8 17 21 20 21 22 21 20 19 18 19 19 17 16 16 16 15 15 14 14 13
5 3 4 5 5 4 5 5 5 5 5 6 7 8 8 8 5 6 8 7 10 11 10 9 12 12 21 22 21 21 21 20 20 19 18 18 17 16 15 15 15 15 14
4 3 3 4 5 6 6 6 4 4 5 4 4 7 8 8 11 9 8 6 10 10 10 8 8 9 10 24 23 23 23 22 21 21 20 19 18 16 15 15 15 15 14
5 4 3 4 6 5 6 5 4 3 4 4 4 5 4 5 7 11 10 10 11 7 9 11 8 11 10 11 17 24 24 24 24 23 22 20 19 18 17 15 15 15 14
5 5 4 4 4 4 5 4 4 6 5 4 6 4 3 5 4 4 4 6 11 9 9 8 12 11 9 7 13 19 26 25 25 24 23 21 20 19 18 17 16 16 15
4 4 4 4 4 4 7 4 4 4 3 5 4 3 7 6 3 6 4 5 3 6 10 5 7 11 12 9 13 19 23 26 25 25 25 23 21 20 20 19 18 17 16
5 5 3 5 4 4 6 6 5 4 5 4 4 3 5 5 7 6 8 8 7 2 6 3 14 13 10 13 12 13 16 26 26 26 26 25 24 22 22 21 20 19 18
3 5 6 4 3 4 5 5 5 6 4 5 4 5 4 3 5 5 6 9 10 8 5 7 13 6 12 12 16 18 19 20 24 23 24 24 24 24 24 23 22 21 20
2 6 3 2 3 5 5 5 5 6 5 4 5 4 4 4 5 6 7 9 9 10 6 6 9 7 9 12 11 14 15 21 23 24 23 23 23 23 24 23 23 23 22
3 1 0 2 4 5 4 3 4 4 4 2 4 4 3 4 4 4 6 8 12 11 10 13 8 6 10 8 9 23 8 17 21 22 22 22 22 22 22 22 22 21 21
4 6 3 4 5 6 4 5 4 5 3 3 4 5 5 6 5 6 4 6 8 14 14 12 8 6 5 6 10 11 12 18 18 21 22 22 22 22 21 21 21 20 19
3 4 4 5 5 6 5 6 4 6 5 4 4 5 4 5 8 7 9 7 8 12 17 12 11 10 9 6 13 15 12 19 27 22 21 22 22 22 22 22 21 21 20
3 4 5 5 6 8 6 5 5 7 8 3 4 5 3 4 6 6 7 8 9 9 15 14 12 12 9 10 8 10 11 9 7 19 22 21 21 21 21 21 20 20 20
4 4 5 6 7 8 6 6 5 6 5 6 5 5 3 3 5 5 6 10 9 11 13 18 13 11 12 12 12 13 10 11 1 13 18 21 22 22 21 20 19 19 19
5 6 5 6 7 7 7 7 7 5 5 6 5 5 3 3 5 5 6 7 8 9 10 12 13 11 11 10 9 10 10 10 10 26 25 21 20 21 19 18 18 18 18
6 5 5 6 7 8 8 10 6 6 7 7 5 5 5 5 5 6 7 8 8 10 10 10 11 13 10 12 9 8 9 8 10 13 10 10 14 15 17 17 18 18 17
5 5 6 7 7 7 8 4 2 6 6 7 6 6 7 7 8 9 7 9 8 9 9 10 11 11 11 12 11 9 9 9 10 7 5 4 6 8 9 13 13 18 17
5 5 6 6 6 6 1 6 6 5 6 7 8 6 7 9 11 13 16 14 11 11 14 11 12 14 14 12 13 10 8 9 9 10 11 9 9 9 9 9 17 16 18
5 5 5 7 7 7 8 9 9 5 7 8 7 7 9 7 10 10 11 12 12 18 19 18 17 15 16 15 14 15 12 10 12 9 9 9 8 11 9 10 18 20 19
5 6 7 6 6 8 8 7 9 8 8 9 10 9 10 10 11 11 9 10 12 16 17 15 18 19 18 16 16 13 13 12 10 6 8 9 6 10 9 8 15 19 19
6 6 7 7 7 7 7 6 8 8 11 10 7 9 8 9 10 7 7 9 13 18 18 28 30 32 33 30 21 10 12 12 12 9 8 10 6 9 5 7 8 17 21
4 6 9 7 6 3 4 7 2 2 10 11 8 8 9 4 7 7 6 8 12 17 20 24 20 21 24 23 30 18 12 11 11 9 9 9 7 5 4 5 4 6 5
Wind_Direction
198 246 343 320 322 350 334 222 266 307 300 281 280 311 250 291 308 149 160 185 178 182 186 198 203 203 202 206 206 212 203 204 211 214 223 225 227 223 220 229 240 250 252
159 290 308 283 335 294 357 341 6 316 300 294 290 248 233 237 277 291 160 181 187 188 194 198 205 209 206 208 207 210 214 212 207 214 216 224 226 226 226 233 240 252 254
218 217 201 282 297 306 306 260 247 247 254 282 287 277 216 207 241 243 263 180 191 197 196 200 204 212 208 211 213 215 208 215 215 216 217 219 221 225 228 234 240 245 249
207 156 218 254 266 291 301 301 289 281 281 260 275 300 303 263 248 222 216 236 195 196 207 204 206 206 210 212 214 218 212 213 215 222 219 217 222 225 228 232 239 244 247
91 189 255 259 250 256 255 268 282 287 300 301 300 266 250 239 243 248 212 217 228 216 188 210 214 212 212 214 213 214 218 216 215 218 222 224 224 226 228 231 236 238 244
307 299 282 271 275 279 269 271 269 286 270 272 279 291 300 294 271 267 251 235 212 225 233 197 207 211 211 216 217 215 216 218 217 219 218 217 220 223 227 230 232 236 238
251 265 255 245 250 244 251 257 268 275 295 290 294 276 272 269 275 260 261 239 239 222 216 229 185 196 202 212 215 215 217 218 216 219 220 217 219 220 223 228 230 231 237
169 202 263 336 322 344 336 301 272 310 305 299 284 291 292 279 250 252 242 248 252 236 218 217 210 196 211 200 210 214 215 218 219 218 218 216 216 222 223 223 225 231 235
347 344 348 324 312 308 288 343 0 312 293 305 287 252 285 245 354 300 288 260 253 244 240 221 215 218 215 191 200 212 214 215 218 219 218 218 214 218 223 222 224 229 231
23 322 286 283 359 345 305 317 337 320 303 287 300 263 262 266 287 305 300 302 309 269 262 266 252 218 214 216 213 205 211 214 216 218 219 219 217 216 221 224 222 226 227
251 239 255 32 347 315 322 325 316 301 296 266 280 301 302 289 258 255 282 286 290 236 247 123 303 300 239 208 219 225 206 207 212 216 216 217 219 219 221 225 226 226 229
286 86 54 34 318 292 309 325 306 298 295 294 286 290 283 289 299 294 291 286 285 282 228 205 228 276 312 282 210 211 214 199 204 211 216 217 219 221 224 227 230 229 232
30 81 51 313 322 306 296 293 307 292 287 318 327 315 310 287 285 291 290 287 281 286 279 250 228 214 236 281 289 294 215 202 200 202 206 210 214 218 222 226 229 231 232
329 35 309 283 296 288 276 302 297 300 299 345 315 322 303 287 263 254 276 291 297 289 278 263 253 226 193 206 293 275 245 240 201 200 199 205 210 215 217 221 226 230 232
329 59 339 298 285 281 285 286 281 318 358 345 338 24 332 316 327 329 286 267 276 293 286 278 268 239 210 171 237 255 274 269 225 203 201 204 210 211 212 216 220 223 227
270 285 291 290 310 305 293 291 296 304 332 332 326 328 314 354 328 337 334 324 321 297 283 278 266 252 240 204 214 217 240 250 248 204 204 205 210 213 212 214 217 220 224
267 272 274 276 283 288 280 281 269 255 267 293 309 302 343 357 349 333 333 324 305 312 284 276 270 262 234 241 240 224 227 231 238 216 206 205 210 214 214 213 214 217 222
264 268 263 269 280 284 280 298 282 306 306 290 288 286 315 1 334 331 329 315 311 303 324 275 271 264 252 239 248 240 220 236 47 294 226 209 209 212 211 210 210 214 218
251 255 267 275 281 281 279 258 250 269 275 270 273 292 305 338 297 305 302 304 307 313 322 315 295 265 258 254 251 235 215 216 199 226 217 219 206 207 207 206 209 212 215
255 272 275 268 272 270 267 262 256 254 265 266 269 277 272 244 272 302 301 304 307 313 317 314 301 297 260 253 242 241 235 231 205 225 230 193 192 217 208 203 208 215 213
262 262 269 269 272 273 279 353 284 252 254 265 257 261 259 245 239 256 271 287 304 304 306 305 293 290 287 256 240 231 225 225 236 234 252 225 199 200 214 218 213 212 214
254 276 288 280 282 290 97 238 264 281 274 267 273 262 272 283 254 242 258 264 281 297 296 297 286 280 275 280 259 237 225 214 219 221 223 233 199 209 207 202 203 198 205
265 272 290 286 280 282 240 249 245 254 268 276 283 275 277 277 283 273 263 267 289 297 271 274 277 270 267 258 264 248 235 224 224 220 201 225 213 223 212 207 197 200 204
237 259 262 266 278 281 243 251 252 256 267 270 271 272 277 286 281 275 298 290 300 298 299 293 278 267 262 259 243 256 243 229 233 225 199 222 209 220 220 224 197 200 201
236 241 252 262 273 275 341 360 343 312 300 289 283 268 278 287 295 352 308 298 305 309 312 307 290 268 255 250 253 249 246 232 231 218 213 220 217 223 208 214 227 195 194
279 276 277 284 302 44 84 171 133 29 291 294 289 283 289 352 335 350 329 312 315 321 311 311 311 299 241 234 231 231 225 223 221 230 213 203 211 186 272 243 146 171 151